Location: Newark
(11.2914°S, 14.4718°E)
Time: 03:42:53
(UTC+00:00)

OTV 5 (USA 277) - Visible Passes

Search period start: 19 July 2019 00:00
Search period end: 29 July 2019 00:00
Orbit: 299 x 335 km, 54.5° (Epoch: 13 July)

Date Brightness Start Highest point End Pass type
(mag) Time Alt. Az. Time Alt. Az. Time Alt. Az.
20 Jul ? 18:25:48 10° N 18:26:11 13° N 18:26:11 13° N visible
21 Jul ? 18:40:13 10° NW 18:41:05 17° WNW 18:41:05 17° WNW visible
22 Jul ? 04:22:53 10° SSE 04:23:55 12° SE 04:24:58 10° ESE visible
22 Jul ? 17:21:29 10° NNE 17:23:17 16° ENE 17:25:05 10° E visible
23 Jul ? 04:36:09 12° SSW 04:38:30 56° ESE 04:41:03 10° NE visible
23 Jul ? 17:35:00 10° NNW 17:37:45 82° NE 17:40:01 14° SE visible
24 Jul ? 04:51:03 11° WSW 04:52:59 22° WNW 04:55:04 10° N visible
24 Jul ? 17:50:13 10° WNW 17:52:18 19° SW 17:54:23 10° S visible
25 Jul ? 03:35:02 14° ENE 03:35:02 14° ENE 03:35:35 10° ENE visible
26 Jul ? 03:49:58 14° NNE 03:49:58 14° NNE 03:50:28 10° NNE visible
